Weather History for Chatham, MA

Change the Weather History Date:

Wednesday, November 27, 2013

  Actual Average Record
Temperature  
Mean Temperature 50 °F -  
Max Temperature 59 °F 46 °F 59 °F (2007)
Min Temperature 41 °F 34 °F 23 °F (1974)
Degree Days  
Heating Degree Days 14    
Moisture  
Dew Point 53 °F    
Average Humidity 96    
Maximum Humidity 100    
Minimum Humidity 89    
Precipitation  
Precipitation 1.82 in - - ()
Sea Level Pressure  
Sea Level Pressure 29.41 in    
Wind  
Wind Speed 14 mph (South)    
Max Wind Speed 25 mph    
Max Gust Speed 50 mph    
Visibility 4 miles    
Events Fog , Rain    
Averages and records for this station are not official NWS values.
T = Trace of Precipitation, MM = Missing Value Source: NWS Daily Summary

Daily Weather History Graph

Daily Weather History Graph

Search for Another Location

Airport:

Trip Planner

Search our weather history database for the weather conditions in past years. The results will help you decide how hot, cold, wet, or windy it might be!

Date:

Astronomy

Nov. 27, 2013 Rise Set
Actual Time 6:43 AM EST 4:11 PM EST
Civil Twilight 6:12 AM EST 4:42 PM EST
Nautical Twilight 5:38 AM EST 5:16 PM EST
Astronomical Twilight 5:04 AM EST 5:50 PM EST
Moon 12:37 AM EST (11/27) 12:51 PM EST (11/27)
Length of Visible Light 10h 29m
Length of Day
9h 28m
Waning Crescent, 32% of the Moon is Illuminated
Nov 27
Waning Crescent
Dec 2
New
Dec 9
First Quarter
Dec 17
Full
Dec 25
Last Quarter

Hourly Weather History & Observations

Time (EST) Temp. Windchill Dew Point Humidity Pressure Visibility Wind Dir Wind Speed Gust Speed Precip Events Conditions
12:31 AM 50.0 °F - 48.0 °F 93% 30.05 in 10.0 mi ESE 11.5 mph 23.0 mph N/A   Overcast
12:45 AM 50.0 °F - 48.0 °F 93% 30.04 in 8.0 mi SE 12.7 mph 20.7 mph 0.00 in Rain Light Rain
12:52 AM 50.0 °F - 48.9 °F 96% 30.04 in 7.0 mi SE 13.8 mph 20.7 mph 0.01 in Rain Light Rain
1:52 AM 51.1 °F - 48.9 °F 92% 30.01 in 6.0 mi SE 12.7 mph 21.9 mph 0.03 in Rain Light Rain
2:52 AM 51.1 °F - 48.9 °F 92% 29.93 in 9.0 mi SE 11.5 mph 23.0 mph 0.01 in   Overcast
3:52 AM 52.0 °F - 50.0 °F 93% 29.85 in 7.0 mi SE 18.4 mph 32.2 mph 0.02 in Rain Light Rain
4:52 AM 52.0 °F - 51.1 °F 97% 29.78 in 6.0 mi SE 16.1 mph 28.8 mph 0.01 in Rain Light Rain
5:02 AM 52.0 °F - 51.1 °F 97% 29.76 in 5.0 mi SE 19.6 mph 31.1 mph 0.01 in Rain Light Rain
5:18 AM 53.1 °F - 51.1 °F 93% 29.74 in 7.0 mi SE 19.6 mph 31.1 mph 0.01 in Rain Light Rain
5:52 AM 53.1 °F - 52.0 °F 96% 29.70 in 6.0 mi SSE 18.4 mph 35.7 mph 0.01 in Rain Light Rain
6:38 AM 54.0 °F - 53.1 °F 97% 29.65 in 2.5 mi SSE 21.9 mph 42.6 mph 0.05 in Rain Rain
6:47 AM 53.6 °F - 53.6 °F 100% 29.64 in 3.0 mi SSE 19.6 mph 36.8 mph 0.06 in Rain Light Rain
6:52 AM 54.0 °F - 53.1 °F 97% 29.64 in 4.0 mi SSE 23.0 mph 47.2 mph 0.06 in Rain Light Rain
7:15 AM 55.0 °F - 53.1 °F 93% 29.62 in 5.0 mi SSE 23.0 mph 49.5 mph 0.01 in Rain Light Rain
7:50 AM 55.4 °F - 53.6 °F 94% 29.59 in 2.5 mi SSE 23.0 mph 36.8 mph 0.03 in Rain Light Rain
7:52 AM 54.0 °F - 53.1 °F 97% 29.60 in 2.5 mi SSE 19.6 mph 36.8 mph 0.04 in Rain Light Rain
8:04 AM 54.0 °F - 53.1 °F 97% 29.58 in 3.0 mi SSE 18.4 mph 39.1 mph 0.00 in Rain Light Rain
8:18 AM 54.0 °F - 53.1 °F 97% 29.57 in 2.5 mi SSE 15.0 mph 35.7 mph 0.00 in Rain Light Rain
8:49 AM 55.4 °F - 53.6 °F 94% 29.55 in 1.2 mi South 19.6 mph 38.0 mph 0.05 in Rain Rain
8:52 AM 55.0 °F - 54.0 °F 96% 29.55 in 1.2 mi SSE 21.9 mph 38.0 mph 0.06 in Rain Rain
9:52 AM 55.9 °F - 55.0 °F 97% 29.50 in 1.2 mi South 23.0 mph 39.1 mph 0.14 in Rain Rain
10:10 AM 55.9 °F - 55.0 °F 97% 29.48 in 1.8 mi South 24.2 mph 40.3 mph 0.04 in Rain Rain
10:32 AM 55.9 °F - 55.0 °F 97% 29.47 in 1.2 mi South 25.3 mph 36.8 mph 0.09 in Rain Rain
10:43 AM 55.0 °F - 54.0 °F 96% 29.47 in 2.5 mi SSW 18.4 mph 33.4 mph 0.09 in Rain Light Rain
10:52 AM 55.9 °F - 54.0 °F 93% 29.46 in 2.5 mi South 24.2 mph 40.3 mph 0.10 in Rain Light Rain
11:00 AM 55.9 °F - 54.0 °F 93% 29.45 in 3.0 mi South 17.3 mph 36.8 mph 0.00 in   Overcast
11:17 AM 55.9 °F - 55.0 °F 97% 29.43 in 2.5 mi South 21.9 mph 34.5 mph 0.00 in Rain Light Rain
11:30 AM 57.0 °F - 55.0 °F 93% 29.42 in 3.0 mi South 17.3 mph 35.7 mph 0.00 in Rain Light Rain
11:38 AM 57.0 °F - 55.0 °F 93% 29.41 in 3.0 mi South 18.4 mph 33.4 mph 0.00 in   Overcast
11:52 AM 57.0 °F - 55.9 °F 96% 29.42 in 3.0 mi South 18.4 mph 39.1 mph 0.00 in Rain Light Rain
12:03 PM 57.0 °F - 55.9 °F 96% 29.40 in 1.8 mi South 19.6 mph 34.5 mph 0.02 in Rain Rain
12:21 PM 57.0 °F - 55.9 °F 96% 29.38 in 2.0 mi South 18.4 mph 36.8 mph 0.06 in Rain Rain
12:29 PM 57.0 °F - 55.9 °F 96% 29.37 in 1.5 mi South 19.6 mph 36.8 mph 0.08 in Rain Rain
12:49 PM 59.0 °F - 57.2 °F 94% 29.35 in 0.5 mi SSE 21.9 mph 40.3 mph 0.26 in Fog , Rain Heavy Rain
12:52 PM 59.0 °F - 57.9 °F 96% 29.34 in 0.5 mi SSE 15.0 mph 39.1 mph 0.28 in Fog , Rain Heavy Rain
1:06 PM 57.9 °F - 57.0 °F 97% 29.29 in 1.5 mi SE 13.8 mph 32.2 mph 0.06 in Rain Rain
1:14 PM 57.9 °F - 57.0 °F 97% 29.28 in 2.5 mi SSE 19.6 mph 40.3 mph 0.07 in Rain Light Rain
1:21 PM 57.0 °F - 57.0 °F 100% 29.27 in 3.0 mi SSE 20.7 mph 40.3 mph 0.07 in Rain Light Rain
1:41 PM 57.9 °F - 57.0 °F 97% 29.26 in 5.0 mi South 18.4 mph 34.5 mph 0.07 in   Overcast
1:52 PM 57.0 °F - 57.0 °F 100% 29.27 in 4.0 mi SSW 20.7 mph 34.5 mph 0.07 in   Overcast
2:06 PM 55.9 °F - 55.0 °F 97% 29.28 in 3.0 mi SSW 20.7 mph 35.7 mph N/A   Overcast
2:14 PM 55.9 °F - 55.0 °F 97% 29.29 in 1.8 mi SSW 16.1 mph 34.5 mph 0.00 in Rain Light Rain
2:26 PM 55.9 °F - 55.0 °F 97% 29.30 in 1.2 mi SSW 17.3 mph 29.9 mph 0.00 in Rain Light Rain
2:42 PM 55.0 °F - 55.0 °F 100% 29.31 in 0.5 mi SSW 11.5 mph 28.8 mph 0.00 in Fog , Rain Light Rain
2:52 PM 55.9 °F - 55.0 °F 97% 29.31 in 0.5 mi SSW 11.5 mph 25.3 mph 0.00 in Fog , Rain Light Rain
3:31 PM 55.0 °F - 54.0 °F 96% 29.30 in 0.5 mi SW 9.2 mph 17.3 mph 0.27 in Fog , Rain Heavy Rain
3:52 PM 55.0 °F - 55.0 °F 100% 29.32 in 1.0 mi SW 8.1 mph 19.6 mph 0.40 in Rain Heavy Rain
3:57 PM 55.9 °F - 55.0 °F 97% 29.31 in 1.0 mi WSW 8.1 mph - 0.04 in Rain Heavy Rain
4:37 PM 54.0 °F - 53.1 °F 97% 29.28 in 1.2 mi SSW 4.6 mph - 0.15 in Rain Rain
4:52 PM 55.0 °F - 54.0 °F 96% 29.28 in 1.0 mi South 5.8 mph - 0.16 in Rain Light Rain
5:12 PM 55.9 °F - 55.0 °F 97% 29.22 in 1.0 mi Variable 3.5 mph - 0.04 in Rain Heavy Rain
5:26 PM 55.9 °F - 55.9 °F 100% 29.23 in 2.0 mi SSE 5.8 mph - 0.05 in Rain Light Rain
5:29 PM 55.9 °F - 55.9 °F 100% 29.23 in 2.0 mi SSE 5.8 mph - 0.05 in Rain Light Rain
5:33 PM 55.9 °F - 55.0 °F 97% 29.23 in 1.2 mi SSE 5.8 mph - 0.05 in Rain Light Rain
5:37 PM 55.9 °F - 55.0 °F 97% 29.23 in 1.0 mi SE 5.8 mph - 0.05 in Rain Light Rain
5:50 PM 55.4 °F - 55.4 °F 100% 29.24 in 0.8 mi Variable 5.8 mph - 0.08 in Rain Rain
5:52 PM 55.9 °F - 55.0 °F 97% 29.23 in 1.0 mi Variable 6.9 mph - 0.09 in Rain Heavy Rain
6:00 PM 55.0 °F - 55.0 °F 100% 29.24 in 1.0 mi Variable 5.8 mph - 0.06 in Rain Heavy Rain
6:09 PM 55.0 °F - 54.0 °F 96% 29.23 in 1.2 mi Variable 3.5 mph - 0.14 in Rain Heavy Rain
6:19 PM 55.9 °F - 55.0 °F 97% 29.22 in 1.2 mi SW 5.8 mph - 0.19 in Rain Heavy Rain
6:27 PM 55.0 °F - 54.0 °F 96% 29.25 in 2.0 mi WSW 5.8 mph - 0.21 in Rain Rain
6:36 PM 55.0 °F - 55.0 °F 100% 29.24 in 1.5 mi WSW 3.5 mph - 0.27 in Rain Heavy Rain
6:49 PM 55.4 °F - 55.4 °F 100% 29.23 in 2.5 mi Calm Calm - 0.30 in Rain Light Rain
6:52 PM 55.9 °F - 55.0 °F 97% 29.23 in 2.0 mi Variable 3.5 mph - 0.30 in Rain Light Rain
7:02 PM 55.9 °F - 55.0 °F 97% 29.23 in 4.0 mi Variable 5.8 mph - 0.00 in   Overcast
7:14 PM 55.9 °F - 55.0 °F 97% 29.23 in 9.0 mi Calm Calm - 0.01 in Rain Light Rain
7:23 PM 55.9 °F - 55.0 °F 97% 29.21 in 10.0 mi Calm Calm - 0.01 in Rain Light Rain
7:40 PM 55.0 °F - 54.0 °F 96% 29.16 in 1.5 mi ESE 8.1 mph - 0.01 in   Overcast
7:52 PM 54.0 °F - 53.1 °F 97% 29.17 in 0.5 mi Calm Calm - 0.01 in Fog Fog
7:59 PM 54.0 °F - 53.1 °F 97% 29.17 in 0.5 mi Calm Calm - N/A Fog Fog
8:07 PM 54.0 °F - 52.0 °F 93% 29.20 in 0.8 mi West 6.9 mph - N/A   Overcast
8:11 PM 54.0 °F - 53.1 °F 97% 29.20 in 2.0 mi Variable 5.8 mph - N/A   Overcast
8:18 PM 55.0 °F - 54.0 °F 96% 29.22 in 10.0 mi West 5.8 mph - N/A   Overcast
8:30 PM 55.0 °F - 55.0 °F 100% 29.24 in 10.0 mi Variable 3.5 mph - 0.00 in Rain Light Rain
8:42 PM 52.0 °F - 51.1 °F 97% 29.26 in 7.0 mi NW 11.5 mph 24.2 mph 0.00 in Rain Light Rain
8:52 PM 50.0 °F - 48.0 °F 93% 29.28 in 10.0 mi NW 13.8 mph 24.2 mph 0.00 in Rain Light Rain
9:00 PM 48.9 °F - 48.0 °F 97% 29.28 in 9.0 mi NW 9.2 mph 24.2 mph 0.00 in Rain Light Rain
9:52 PM 46.0 °F 39.6 °F 45.0 °F 96% 29.32 in 4.0 mi WNW 15.0 mph 32.2 mph 0.02 in Rain Light Rain
10:11 PM 44.1 °F 38.6 °F 43.0 °F 96% 29.35 in 6.0 mi West 10.4 mph 23.0 mph 0.00 in   Overcast
10:52 PM 43.0 °F 38.2 °F 41.0 °F 93% 29.39 in 10.0 mi WNW 8.1 mph - 0.00 in   Overcast
11:28 PM 42.1 °F 38.4 °F 39.0 °F 89% 29.42 in 10.0 mi WNW 5.8 mph - N/A   Overcast
11:52 PM 41.0 °F 36.4 °F 39.0 °F 93% 29.45 in 10.0 mi West 6.9 mph - N/A   Overcast